Hutchinson, MN

1:10 AM CST on December 12, 2017 (GMT -0600)
Hutchinson Municipal-Butler

Weather History for KHCD - October, 2013

Change the Weather History Date:

Wednesday, October 23, 2013

  Actual Average Record
Temperature  
Mean Temperature 32 °F -  
Max Temperature 38 °F 58 °F 81 °F (1992)
Min Temperature 26 °F 35 °F 22 °F (1981)
Degree Days  
Heating Degree Days 33    
Moisture  
Dew Point 25 °F    
Average Humidity 72    
Maximum Humidity 96    
Minimum Humidity 51    
Precipitation  
Precipitation 0.00 in - - ()
Sea Level Pressure  
Sea Level Pressure 30.06 in    
Wind  
Wind Speed 7 mph (WNW)    
Max Wind Speed 17 mph    
Max Gust Speed 22 mph    
Visibility 10 miles    
Events      
Averages and records for this station are not official NWS values.
T = Trace of Precipitation, MM = Missing Value Source: NWS Daily Summary

Daily Weather History Graph

Daily Weather History Graph

Search for Another Location

Airport or City:

Trip Planner

Search our weather history database for the weather conditions in past years. The results will help you decide how hot, cold, wet, or windy it might be!

Date:

Astronomy

Oct. 23, 2013 Rise Set
Actual Time 7:43 AM CDT 6:18 PM CDT
Civil Twilight 7:13 AM CDT 6:48 PM CDT
Nautical Twilight 6:39 AM CDT 7:23 PM CDT
Astronomical Twilight 6:05 AM CDT 7:56 PM CDT
Moon 9:44 PM CDT (10/23) 12:08 PM CDT (10/23)
Length of Visible Light 11h 34m
Length of Day
10h 35m
Waning Gibbous, 79% of the Moon is Illuminated
Oct 23
Waning Gibbous
Oct 26
Last Quarter
Nov 3
New
Nov 9
First Quarter
Nov 17
Full

Hourly Weather History & Observations

Time (CDT) Temp. Windchill Dew Point Humidity Pressure Visibility Wind Dir Wind Speed Gust Speed Precip Events Conditions
12:14 AM 34.9 °F 30.8 °F 28.8 °F 78% 30.04 in 10.0 mi West 4.6 mph - N/A   Overcast
12:33 AM 34.9 °F 30.8 °F 28.4 °F 77% 30.04 in 10.0 mi WNW 4.6 mph - N/A   Overcast
12:53 AM 34.7 °F 30.6 °F 28.4 °F 78% 30.03 in 10.0 mi WNW 4.6 mph - N/A   Overcast
1:14 AM 34.7 °F 30.6 °F 28.4 °F 78% 30.04 in 10.0 mi West 4.6 mph - N/A   Overcast
1:33 AM 34.7 °F 30.6 °F 28.2 °F 77% 30.04 in 10.0 mi WNW 4.6 mph - N/A   Overcast
1:53 AM 34.7 °F 30.6 °F 28.4 °F 78% 30.04 in 10.0 mi West 4.6 mph - N/A   Overcast
2:13 AM 34.7 °F 29.6 °F 28.4 °F 78% 30.04 in 10.0 mi West 5.8 mph - N/A   Overcast
2:21 AM 34.2 °F 30.0 °F 28.4 °F 79% 30.03 in 10.0 mi West 4.6 mph - N/A   Overcast
2:45 AM 33.8 °F 28.6 °F 28.4 °F 81% 30.03 in 10.0 mi West 5.8 mph - N/A   Overcast
3:05 AM 32.0 °F 27.5 °F 28.4 °F 87% 30.03 in 10.0 mi West 4.6 mph - N/A   Overcast
3:25 AM 33.8 °F 29.6 °F 28.4 °F 81% 30.03 in 10.0 mi West 4.6 mph - N/A   Overcast
3:47 AM 32.9 °F 28.5 °F 29.3 °F 87% 30.02 in 10.0 mi West 4.6 mph - N/A   Overcast
3:53 AM 32.9 °F 28.5 °F 29.3 °F 87% 30.02 in 10.0 mi West 4.6 mph - N/A   Overcast
4:14 AM 32.4 °F 27.9 °F 29.3 °F 88% 30.02 in 10.0 mi West 4.6 mph - N/A   Overcast
4:33 AM 30.2 °F 24.3 °F 28.0 °F 92% 30.02 in 10.0 mi West 5.8 mph - N/A   Mostly Cloudy
4:53 AM 29.3 °F 24.3 °F 27.5 °F 93% 30.02 in 10.0 mi West 4.6 mph - N/A   Scattered Clouds
5:14 AM 29.5 °F 22.5 °F 27.9 °F 94% 30.02 in 10.0 mi West 6.9 mph - N/A   Clear
5:34 AM 28.9 °F 23.9 °F 27.3 °F 94% 30.02 in 10.0 mi West 4.6 mph - N/A   Clear
5:53 AM 27.5 °F 23.6 °F 26.4 °F 96% 30.02 in 10.0 mi West 3.5 mph - N/A   Clear
6:13 AM 26.6 °F 21.2 °F 25.5 °F 96% 30.03 in 10.0 mi West 4.6 mph - N/A   Clear
6:33 AM 27.3 °F 23.4 °F 26.4 °F 96% 30.03 in 10.0 mi West 3.5 mph - N/A   Scattered Clouds
6:54 AM 28.9 °F 25.2 °F 27.7 °F 95% 30.02 in 10.0 mi West 3.5 mph - N/A   Overcast
7:13 AM 30.2 °F 26.7 °F 28.9 °F 95% 30.02 in 10.0 mi WNW 3.5 mph - N/A   Overcast
7:33 AM 31.1 °F 26.4 °F 29.3 °F 93% 30.02 in 10.0 mi West 4.6 mph - N/A   Overcast
7:53 AM 31.5 °F 28.1 °F 29.8 °F 94% 30.03 in 10.0 mi West 3.5 mph - N/A   Overcast
8:13 AM 31.8 °F - 30.0 °F 93% 30.03 in 10.0 mi Calm Calm - N/A   Overcast
8:33 AM 32.0 °F 28.7 °F 30.4 °F 94% 30.04 in 10.0 mi West 3.5 mph - N/A   Overcast
8:54 AM 32.2 °F 28.9 °F 30.2 °F 92% 30.04 in 10.0 mi WNW 3.5 mph - N/A   Overcast
9:14 AM 32.9 °F 27.5 °F 30.7 °F 92% 30.04 in 10.0 mi WNW 5.8 mph - N/A   Overcast
9:33 AM 33.3 °F 27.9 °F 30.9 °F 91% 30.04 in 10.0 mi NW 5.8 mph - N/A   Overcast
9:53 AM 33.8 °F 29.6 °F 30.6 °F 88% 30.04 in 10.0 mi NW 4.6 mph - N/A   Overcast
10:14 AM 34.5 °F 28.6 °F 30.4 °F 85% 30.04 in 10.0 mi NW 6.9 mph - N/A   Overcast
10:33 AM 35.1 °F 28.6 °F 30.2 °F 82% 30.05 in 10.0 mi NW 8.1 mph - N/A   Overcast
10:53 AM 35.6 °F 27.5 °F 28.2 °F 75% 30.05 in 10.0 mi NW 11.5 mph - N/A   Overcast
11:13 AM 35.4 °F 26.8 °F 25.0 °F 66% 30.05 in 10.0 mi NW 12.7 mph 18.4 mph N/A   Overcast
11:33 AM 35.6 °F 27.1 °F 22.1 °F 58% 30.05 in 10.0 mi WNW 12.7 mph 20.7 mph N/A   Overcast
11:54 AM 36.1 °F 27.3 °F 21.4 °F 55% 30.06 in 10.0 mi NNW 13.8 mph 19.6 mph N/A   Overcast
12:13 PM 36.0 °F 28.5 °F 21.2 °F 55% 30.06 in 10.0 mi NW 10.4 mph - N/A   Overcast
12:34 PM 36.3 °F 28.4 °F 22.5 °F 57% 30.06 in 10.0 mi WNW 11.5 mph 17.3 mph N/A   Overcast
12:53 PM 36.5 °F 28.7 °F 21.9 °F 56% 30.05 in 10.0 mi NW 11.5 mph 18.4 mph N/A   Overcast
1:14 PM 36.5 °F 28.2 °F 21.9 °F 56% 30.05 in 10.0 mi NW 12.7 mph 17.3 mph N/A   Overcast
1:33 PM 36.5 °F 28.2 °F 23.4 °F 59% 30.05 in 10.0 mi NW 12.7 mph 17.3 mph N/A   Overcast
1:53 PM 36.7 °F 27.6 °F 23.2 °F 58% 30.05 in 10.0 mi NW 15.0 mph 20.7 mph N/A   Overcast
2:14 PM 36.5 °F 28.7 °F 22.6 °F 57% 30.05 in 10.0 mi NW 11.5 mph 18.4 mph N/A   Overcast
2:34 PM 37.2 °F 30.0 °F 21.4 °F 53% 30.05 in 10.0 mi WNW 10.4 mph 17.3 mph N/A   Overcast
2:53 PM 38.7 °F 30.5 °F 21.9 °F 51% 30.05 in 10.0 mi NNW 13.8 mph 18.4 mph N/A   Overcast
3:13 PM 37.0 °F 27.4 °F 21.2 °F 53% 30.05 in 10.0 mi NNW 17.3 mph 20.7 mph N/A   Overcast
3:33 PM 37.0 °F 28.5 °F 21.6 °F 54% 30.05 in 10.0 mi NNW 13.8 mph 19.6 mph N/A   Mostly Cloudy
3:51 PM 37.9 °F 30.5 °F 22.1 °F 53% 30.06 in 10.0 mi NW 11.5 mph 17.3 mph N/A   Mostly Cloudy
4:14 PM 37.4 °F 28.9 °F 22.3 °F 54% 30.07 in 10.0 mi NNW 13.8 mph 17.3 mph N/A   Overcast
4:33 PM 37.4 °F 30.8 °F 21.9 °F 54% 30.07 in 10.0 mi NW 9.2 mph 17.3 mph N/A   Overcast
4:54 PM 37.4 °F 30.3 °F 22.1 °F 54% 30.07 in 10.0 mi NW 10.4 mph - N/A   Overcast
5:13 PM 37.4 °F 30.3 °F 21.4 °F 52% 30.07 in 10.0 mi WNW 10.4 mph 17.3 mph N/A   Overcast
5:33 PM 37.4 °F 30.8 °F 21.4 °F 52% 30.07 in 10.0 mi WNW 9.2 mph - N/A   Overcast
5:54 PM 37.0 °F 29.8 °F 22.1 °F 55% 30.07 in 10.0 mi NW 10.4 mph - N/A   Overcast
6:14 PM 36.9 °F 29.6 °F 21.7 °F 54% 30.07 in 10.0 mi NW 10.4 mph - N/A   Overcast
6:33 PM 36.9 °F 30.7 °F 21.6 °F 54% 30.08 in 10.0 mi NW 8.1 mph - N/A   Overcast
6:53 PM 36.9 °F 29.6 °F 22.1 °F 55% 30.09 in 10.0 mi NW 10.4 mph 19.6 mph N/A   Overcast
7:14 PM 36.7 °F 29.9 °F 22.8 °F 57% 30.09 in 10.0 mi NNW 9.2 mph - N/A   Overcast
7:33 PM 36.1 °F 28.2 °F 22.3 °F 57% 30.09 in 10.0 mi NNW 11.5 mph - N/A   Mostly Cloudy
7:53 PM 35.6 °F 29.9 °F 22.5 °F 59% 30.10 in 10.0 mi NW 6.9 mph - N/A   Mostly Cloudy
8:14 PM 35.6 °F 31.7 °F 23.0 °F 60% 30.11 in 7.0 mi NW 4.6 mph - N/A   Overcast
8:33 PM 35.6 °F 30.7 °F 23.0 °F 60% 30.11 in 10.0 mi WNW 5.8 mph - N/A   Overcast
8:53 PM 35.6 °F 31.7 °F 23.5 °F 62% 30.11 in 10.0 mi WNW 4.6 mph - N/A   Overcast
9:13 PM 35.2 °F 29.5 °F 23.9 °F 63% 30.11 in 10.0 mi WNW 6.9 mph - N/A   Overcast
9:33 PM 34.7 °F 28.1 °F 26.2 °F 71% 30.11 in 10.0 mi NW 8.1 mph - N/A   Overcast
9:54 PM 34.7 °F 27.5 °F 26.6 °F 72% 30.11 in 10.0 mi NW 9.2 mph - N/A   Overcast
10:14 PM 34.9 °F 27.7 °F 26.6 °F 72% 30.12 in 10.0 mi NW 9.2 mph 16.1 mph N/A   Overcast
10:33 PM 34.7 °F 25.5 °F 22.1 °F 60% 30.12 in 10.0 mi NW 13.8 mph 21.9 mph N/A   Overcast
10:53 PM 34.0 °F 26.0 °F 21.0 °F 59% 30.12 in 10.0 mi NW 10.4 mph 18.4 mph N/A   Overcast
11:14 PM 32.5 °F 23.7 °F 21.6 °F 64% 30.12 in 10.0 mi NW 11.5 mph 18.4 mph N/A   Scattered Clouds
11:33 PM 32.0 °F 23.6 °F 21.7 °F 66% 30.13 in 10.0 mi WNW 10.4 mph - N/A   Scattered Clouds
11:53 PM 32.0 °F 22.5 °F 21.7 °F 66% 30.13 in 10.0 mi NW 12.7 mph 20.7 mph N/A   Overcast